Retour au catalogue

STARLINK-32702

ActifCommunicationsVLEO
NORAD 62432·PAYLOAD·🇺🇸 United States

Lancé Dec 29, 2024 depuis Vandenberg Space Force Base

Loading…

Prochains Passages (prochaines 24 heures)

TLE

FraisSource: CelesTrak SupGP

Époque: Sep 15, 2026, 02:06 UTC

1 62432C 24251A   26258.08798611 -.00054922  00000+0 -16226-2 0  2584
2 62432  53.1571 171.1410 0001278  84.2331  94.0383 15.34419659    10

Suivez STARLINK-32702 en temps réel avec AllMySat

Download on the App Store